�N����,����,�~����,�C��,���x,�C��,����,���ϕ���,�ő�u�ԕ���,�ő厞����,���˗�,�I�_���x,�n�����x,�ő啗���N��,DTYPE
"23/07/22","00:10",0.0,24.6,84.8,1009.7,261.9,0.6,1.3,299.9,0.00,21.9,24.7,"00:08:32",1
"23/07/22","00:20",0.0,24.5,85.2,1010.0,297.3,0.8,1.7,331.6,0.00,21.9,25.0,"00:14:48",1
"23/07/22","00:30",0.0,24.4,85.6,1009.7,298.8,0.8,1.3,286.3,0.00,21.9,24.7,"00:25:44",1
"23/07/22","00:40",0.0,24.3,85.9,1010.0,306.1,0.6,1.7,307.3,0.00,21.8,24.6,"00:36:56",1
"23/07/22","00:50",0.0,24.2,86.3,1010.0,285.3,0.7,1.8,330.7,0.00,21.8,24.8,"00:49:20",1
"23/07/22","01:00",0.0,24.1,86.6,1010.0,285.9,0.7,1.4,328.2,0.00,21.8,24.6,"00:50:16",1
"23/07/22","01:10",0.0,24.1,87.0,1009.7,301.4,1.0,1.7,328.0,0.00,21.8,24.7,"01:03:12",1
"23/07/22","01:20",0.0,24.1,87.3,1010.0,282.0,0.8,1.7,266.2,0.00,21.9,24.5,"01:17:04",1
"23/07/22","01:30",0.0,24.0,87.6,1010.0,310.4,1.1,2.4,318.7,0.00,21.9,24.7,"01:23:44",1
"23/07/22","01:40",0.0,23.9,87.9,1009.7,301.7,1.0,1.6,329.2,0.00,21.8,24.6,"01:39:04",1
"23/07/22","01:50",0.0,23.9,88.2,1010.0,316.2,1.3,2.1,331.6,0.00,21.9,24.6,"01:45:44",1
"23/07/22","02:00",0.0,23.7,88.4,1010.2,298.0,0.7,1.8,314.6,0.00,21.7,24.7,"01:53:28",1
"23/07/22","02:10",0.0,23.6,88.7,1010.4,314.1,1.0,1.6,311.9,0.00,21.7,24.4,"02:08:24",1
"23/07/22","02:20",0.0,23.5,88.9,1010.2,324.1,1.0,1.7,328.5,0.00,21.6,24.5,"02:11:36",1
"23/07/22","02:30",0.0,23.5,89.2,1010.2,302.0,1.0,1.7,319.7,0.00,21.7,24.4,"02:24:00",1
"23/07/22","02:40",0.0,23.4,89.5,1010.2,304.9,1.1,1.7,338.0,0.00,21.6,24.4,"02:34:40",1
"23/07/22","02:50",0.0,23.4,89.7,1010.2,302.3,1.1,1.8,333.7,0.00,21.7,24.5,"02:42:24",1
"23/07/22","03:00",0.0,23.3,89.9,1010.2,313.8,1.2,1.9,318.9,0.00,21.6,24.3,"02:50:40",1
"23/07/22","03:10",0.0,23.3,90.1,1010.0,321.1,1.2,2.1,324.7,0.00,21.6,24.4,"03:01:36",1
"23/07/22","03:20",0.0,23.3,90.3,1010.4,303.1,1.0,1.4,316.3,0.00,21.7,24.3,"03:11:04",1
"23/07/22","03:30",0.0,23.3,90.4,1010.7,309.4,1.1,1.9,264.4,0.00,21.7,24.3,"03:22:24",1
"23/07/22","03:40",0.0,23.2,90.5,1010.4,323.2,1.1,1.8,330.6,0.00,21.6,24.3,"03:30:24",1
"23/07/22","03:50",0.0,23.0,90.6,1010.7,323.8,1.0,1.4,342.2,0.00,21.4,24.3,"03:41:12",1
"23/07/22","04:00",0.0,22.9,90.9,1010.4,297.0,1.0,1.4,311.7,0.00,21.4,24.3,"03:51:52",1
"23/07/22","04:10",0.0,22.9,91.1,1010.9,307.4,1.0,1.6,325.8,0.00,21.4,24.2,"04:09:04",1
"23/07/22","04:20",0.0,22.9,91.2,1010.7,324.5,1.3,1.7,335.8,0.00,21.4,24.3,"04:14:56",1
"23/07/22","04:30",0.0,22.6,91.4,1011.2,315.2,1.0,1.4,322.7,0.00,21.2,24.3,"04:26:00",1
"23/07/22","04:40",0.0,22.5,91.6,1011.2,301.1,0.8,1.4,316.9,0.00,21.1,24.1,"04:31:04",1
"23/07/22","04:50",0.0,22.4,91.8,1011.6,306.4,0.8,1.6,323.5,0.00,21.0,24.2,"04:49:44",1
"23/07/22","05:00",0.0,22.7,91.9,1012.1,312.9,1.5,2.1,338.5,0.00,21.4,24.1,"04:55:20",1
"23/07/22","05:10",0.0,22.6,92.0,1011.6,321.7,1.1,1.6,321.4,0.00,21.3,24.1,"05:01:04",1
"23/07/22","05:20",0.0,22.7,92.2,1011.6,302.6,1.2,1.7,313.6,0.00,21.4,24.0,"05:18:08",1
"23/07/22","05:30",0.0,22.7,92.3,1011.6,299.3,1.1,1.9,324.8,0.00,21.4,23.9,"05:29:04",1
"23/07/22","05:40",0.0,22.8,92.4,1011.4,321.9,1.1,1.6,332.8,0.00,21.5,23.9,"05:32:40",1
"23/07/22","05:50",0.0,23.0,92.4,1011.9,337.3,1.0,1.4,329.7,0.00,21.7,23.9,"05:46:40",1
"23/07/22","06:00",0.0,23.1,92.4,1011.9,311.3,0.8,1.4,305.1,0.01,21.8,23.9,"05:55:52",1
"23/07/22","06:10",0.0,23.6,92.4,1011.6,291.8,0.6,1.4,314.5,0.03,22.3,23.9,"06:06:24",1
"23/07/22","06:20",0.0,24.4,92.2,1011.6,326.5,0.6,1.1,338.2,0.04,23.1,24.0,"06:10:16",1
"23/07/22","06:30",0.0,25.1,91.6,1011.9,334.5,0.3,1.1,340.0,0.05,23.7,23.7,"06:20:32",1
"23/07/22","06:40",0.0,25.6,90.9,1011.4,354.0,0.3,0.9,344.4,0.07,24.0,23.9,"06:30:24",1
"23/07/22","06:50",0.0,26.2,89.0,1011.9,7.5,0.3,1.3,344.9,0.09,24.3,23.7,"06:49:36",1
"23/07/22","07:00",0.0,26.5,87.3,1011.4,348.0,0.5,0.9,345.4,0.11,24.3,23.8,"06:50:08",1
"23/07/22","07:10",0.0,27.0,84.3,1011.4,341.3,0.6,1.1,346.3,0.13,24.2,23.7,"07:00:48",1
"23/07/22","07:20",0.0,28.0,80.5,1010.7,23.1,0.3,1.0,18.1,0.15,24.4,23.7,"07:15:20",1
"23/07/22","07:30",0.0,28.4,75.7,1010.9,323.4,0.5,1.3,0.8,0.18,23.7,24.0,"07:28:16",1
"23/07/22","07:40",0.0,29.0,72.1,1010.9,9.9,0.7,1.8,337.5,0.19,23.5,23.9,"07:32:32",1
"23/07/22","07:50",0.0,29.1,69.9,1011.2,145.1,1.0,1.9,147.7,0.22,23.1,24.0,"07:43:52",1
"23/07/22","08:00",0.0,29.6,69.0,1011.4,110.1,1.0,2.0,9.1,0.25,23.3,23.9,"07:53:28",1
"23/07/22","08:10",0.0,30.2,68.4,1011.6,131.9,0.8,2.1,124.4,0.27,23.8,23.8,"08:02:00",1
"23/07/22","08:20",0.0,30.1,67.8,1012.3,152.2,1.2,2.2,132.4,0.30,23.5,23.8,"08:11:20",1
"23/07/22","08:30",0.0,30.2,67.2,1012.3,132.3,1.1,2.8,132.0,0.31,23.5,24.0,"08:26:56",1
"23/07/22","08:40",0.0,30.1,65.8,1012.6,160.4,1.5,3.2,145.3,0.34,23.0,24.1,"08:32:00",1
"23/07/22","08:50",0.0,30.4,66.1,1012.3,156.5,1.3,2.5,195.0,0.36,23.4,24.0,"08:40:56",1
"23/07/22","09:00",0.0,30.3,65.4,1012.3,191.4,1.6,4.1,200.5,0.38,23.1,24.1,"08:55:52",1
"23/07/22","09:10",0.0,31.1,64.4,1012.3,149.5,0.8,2.0,150.1,0.40,23.6,24.0,"09:01:28",1
"23/07/22","09:20",0.0,31.7,63.1,1012.3,142.4,0.8,2.0,163.3,0.42,23.9,24.2,"09:14:24",1
"23/07/22","09:30",0.0,31.1,62.8,1012.8,173.8,1.8,4.0,200.9,0.43,23.2,24.3,"09:23:20",1
"23/07/22","09:40",0.0,31.1,60.8,1012.6,202.5,1.5,3.9,213.1,0.45,22.7,24.3,"09:32:24",1
"23/07/22","09:50",0.0,31.5,61.8,1012.8,140.1,1.3,2.7,124.9,0.46,23.3,24.3,"09:42:08",1
"23/07/22","10:00",0.0,31.7,60.5,1012.6,180.8,1.5,3.3,135.1,0.48,23.2,24.3,"09:53:12",1
"23/07/22","10:10",0.0,32.0,60.5,1012.8,173.7,1.6,3.6,227.6,0.49,23.4,24.3,"10:08:16",1
"23/07/22","10:20",0.0,32.4,58.0,1012.6,191.6,1.3,3.9,209.3,0.50,23.1,24.4,"10:12:24",1
"23/07/22","10:30",0.0,32.7,59.3,1012.6,181.6,1.6,2.8,193.3,0.51,23.8,24.5,"10:22:00",1
"23/07/22","10:40",0.0,32.9,57.0,1012.6,130.3,1.1,2.7,155.3,0.53,23.3,24.8,"10:30:40",1
"23/07/22","10:50",0.0,32.6,56.4,1012.6,250.4,0.5,1.4,228.0,0.32,22.8,24.8,"10:40:32",1
"23/07/22","11:00",0.0,31.8,57.2,1012.3,200.5,1.0,2.6,139.0,0.12,22.3,25.0,"10:55:36",1
"23/07/22","11:10",0.0,33.1,57.8,1011.9,357.7,0.6,1.7,55.6,0.57,23.7,25.1,"11:06:48",1
"23/07/22","11:20",0.0,32.9,55.6,1012.3,123.8,0.7,1.8,94.1,0.24,22.9,25.1,"11:14:16",1
"23/07/22","11:30",0.0,32.8,58.5,1011.4,91.4,0.7,2.0,78.3,0.28,23.6,25.2,"11:23:12",1
"23/07/22","11:40",0.0,33.7,54.8,1011.9,186.7,1.2,3.3,202.5,0.60,23.4,24.9,"11:37:04",1
"23/07/22","11:50",0.0,34.3,52.9,1011.9,108.7,1.0,2.4,109.7,0.50,23.4,25.1,"11:45:52",1
"23/07/22","12:00",0.0,33.7,53.3,1012.3,179.9,1.7,3.5,213.8,0.53,22.9,25.2,"11:58:24",1
"23/07/22","12:10",0.0,34.7,51.1,1012.1,168.2,1.2,3.6,179.7,0.61,23.1,25.2,"12:02:48",1
"23/07/22","12:20",0.0,35.0,51.8,1012.3,180.2,1.6,3.5,200.4,0.61,23.6,25.3,"12:12:32",1
"23/07/22","12:30",0.0,34.7,49.3,1012.1,194.4,1.6,3.2,243.4,0.59,22.6,25.4,"12:26:08",1
"23/07/22","12:40",0.0,33.9,50.2,1012.3,160.2,1.5,3.2,154.3,0.35,22.1,25.5,"12:35:44",1
"23/07/22","12:50",0.0,34.3,50.1,1011.9,181.1,1.5,2.8,230.2,0.53,22.5,25.5,"12:46:40",1
"23/07/22","13:00",0.0,34.9,50.4,1011.9,194.4,1.1,2.4,137.0,0.42,23.1,25.7,"12:59:28",1
"23/07/22","13:10",0.0,33.2,50.8,1011.6,154.4,1.2,2.1,134.6,0.17,21.7,25.6,"13:02:40",1
"23/07/22","13:20",0.0,34.6,50.2,1011.4,176.6,1.1,2.2,158.5,0.55,22.8,25.6,"13:15:20",1
"23/07/22","13:30",0.0,35.4,48.1,1011.4,213.3,1.5,3.6,206.4,0.55,22.8,25.8,"13:26:48",1
"23/07/22","13:40",0.0,35.9,45.5,1011.4,159.3,1.3,2.9,128.6,0.54,22.3,25.9,"13:33:44",1
"23/07/22","13:50",0.0,35.9,43.8,1011.6,287.2,0.8,1.7,217.7,0.48,21.7,25.9,"13:41:12",1
"23/07/22","14:00",0.0,36.4,44.5,1011.6,158.7,0.8,2.8,345.7,0.53,22.4,26.0,"13:59:04",1
"23/07/22","14:10",0.0,36.4,46.0,1011.6,67.4,1.2,2.6,134.3,0.52,23.0,26.0,"14:03:04",1
"23/07/22","14:20",0.0,36.1,47.1,1011.6,355.9,1.3,3.4,26.0,0.49,23.1,26.0,"14:14:24",1
"23/07/22","14:30",0.0,36.4,45.1,1011.6,23.4,1.0,2.5,351.2,0.48,22.6,26.1,"14:20:08",1
"23/07/22","14:40",0.0,36.8,44.9,1011.6,257.0,0.7,1.6,160.7,0.47,22.9,26.2,"14:37:36",1
"23/07/22","14:50",0.0,36.2,41.2,1011.4,217.1,1.6,3.2,233.7,0.43,21.0,26.1,"14:48:24",1
"23/07/22","15:00",0.0,36.9,46.0,1011.2,229.5,0.7,1.7,268.8,0.43,23.4,26.2,"14:53:28",1
"23/07/22","15:10",0.0,37.0,45.4,1010.9,100.4,0.8,1.8,178.8,0.43,23.3,26.1,"15:05:04",1
"23/07/22","15:20",0.0,37.2,45.5,1011.2,69.6,0.5,1.9,136.9,0.41,23.5,26.4,"15:16:16",1
"23/07/22","15:30",0.0,37.2,44.4,1011.4,29.8,1.1,2.7,4.6,0.38,23.1,26.4,"15:27:04",1
"23/07/22","15:40",0.0,36.8,43.5,1010.9,30.8,0.7,2.1,37.0,0.31,22.4,26.4,"15:33:52",1
"23/07/22","15:50",0.0,36.3,45.9,1010.7,143.0,0.7,1.9,127.5,0.30,22.8,26.6,"15:44:00",1
"23/07/22","16:00",0.0,35.2,48.1,1010.9,176.9,1.1,2.0,193.4,0.20,22.6,26.6,"15:53:20",1
"23/07/22","16:10",0.0,34.4,47.0,1010.4,238.0,1.2,2.7,213.9,0.08,21.5,26.6,"16:07:36",1
"23/07/22","16:20",0.0,34.3,48.8,1010.2,217.2,1.0,1.9,204.1,0.16,22.0,26.5,"16:11:28",1
"23/07/22","16:30",0.0,35.0,47.1,1009.7,241.1,1.1,2.6,241.4,0.20,22.1,26.6,"16:29:44",1
"23/07/22","16:40",0.0,34.8,47.9,1010.0,248.2,0.7,2.2,231.5,0.12,22.2,26.7,"16:34:08",1
"23/07/22","16:50",0.0,34.4,53.1,1009.5,299.5,0.5,1.7,310.5,0.09,23.5,26.7,"16:47:44",1
"23/07/22","17:00",0.0,33.2,55.0,1009.5,152.7,1.5,3.7,131.9,0.08,23.0,26.7,"16:51:52",1
"23/07/22","17:10",0.0,33.4,54.9,1009.5,123.4,0.8,1.8,139.8,0.11,23.1,26.4,"17:00:24",1
"23/07/22","17:20",0.0,34.2,52.5,1009.7,348.0,1.1,2.4,20.5,0.07,23.1,26.5,"17:18:08",1
"23/07/22","17:30",0.0,34.0,51.7,1009.5,220.1,1.2,2.9,217.3,0.06,22.7,26.6,"17:26:00",1
"23/07/22","17:40",0.0,34.0,52.4,1009.7,300.0,1.0,2.4,339.1,0.06,22.9,26.7,"17:37:36",1
"23/07/22","17:50",0.0,33.6,52.7,1009.7,293.3,1.1,4.0,222.7,0.05,22.6,26.5,"17:48:16",1
"23/07/22","18:00",0.0,32.9,54.5,1009.0,273.5,1.3,2.8,282.1,0.03,22.6,26.6,"17:52:08",1
"23/07/22","18:10",0.0,32.4,56.4,1009.3,254.1,1.6,3.9,214.5,0.02,22.7,26.6,"18:07:28",1
"23/07/22","18:20",0.0,31.8,58.5,1009.0,232.4,2.3,5.2,239.9,0.01,22.7,26.4,"18:18:40",1
"23/07/22","18:30",0.0,31.1,61.0,1008.6,244.0,2.2,5.2,236.7,0.00,22.7,26.5,"18:26:48",1
"23/07/22","18:40",0.0,30.8,62.4,1008.6,278.4,1.3,3.2,233.8,0.00,22.8,26.4,"18:39:12",1
"23/07/22","18:50",0.0,30.4,63.7,1008.3,236.7,1.6,3.5,238.1,0.00,22.8,26.3,"18:40:02",1
"23/07/22","19:00",0.0,30.1,65.2,1008.1,244.4,1.6,4.3,237.3,0.00,22.9,26.3,"18:57:44",1
"23/07/22","19:10",0.0,29.8,66.2,1008.6,232.4,1.1,2.7,245.0,0.00,22.9,26.3,"19:04:16",1
"23/07/22","19:20",0.0,29.6,67.0,1008.1,224.3,2.0,5.6,232.7,0.00,22.9,26.4,"19:13:20",1
"23/07/22","19:30",0.0,29.3,67.5,1008.1,244.1,1.2,2.6,280.7,0.00,22.7,26.3,"19:22:16",1
"23/07/22","19:40",0.0,29.1,68.4,1008.6,231.0,1.3,3.2,228.1,0.00,22.7,26.0,"19:38:08",1
"23/07/22","19:50",0.0,29.0,69.1,1009.0,263.9,1.3,3.6,234.7,0.00,22.8,26.2,"19:40:40",1
"23/07/22","20:00",0.0,28.7,69.4,1009.0,308.6,1.1,3.4,351.1,0.00,22.6,26.1,"19:55:52",1
"23/07/22","20:10",0.0,28.5,69.2,1009.5,286.8,1.1,2.8,230.9,0.00,22.3,26.3,"20:09:20",1
"23/07/22","20:20",0.0,28.7,67.8,1009.3,278.2,1.3,3.3,252.9,0.00,22.2,26.2,"20:10:24",1
"23/07/22","20:30",0.0,28.6,68.3,1009.7,295.6,1.2,2.8,244.4,0.00,22.2,25.9,"20:26:32",1
"23/07/22","20:40",0.0,28.3,69.4,1009.7,322.8,1.0,2.1,346.1,0.00,22.2,25.9,"20:36:16",1
"23/07/22","20:50",0.0,28.2,70.6,1009.7,332.4,1.2,3.1,337.7,0.00,22.4,26.0,"20:43:36",1
"23/07/22","21:00",0.0,27.8,72.5,1009.7,340.2,1.1,2.4,339.9,0.00,22.4,25.8,"20:56:00",1
"23/07/22","21:10",0.0,27.4,73.9,1010.0,331.6,1.1,2.2,348.6,0.00,22.4,25.8,"21:00:16",1
"23/07/22","21:20",0.0,27.1,75.3,1010.4,346.7,1.0,2.2,304.1,0.00,22.4,25.6,"21:11:44",1
"23/07/22","21:30",0.0,26.9,76.2,1010.0,353.1,1.0,2.0,345.9,0.00,22.4,25.8,"21:25:12",1
"23/07/22","21:40",0.0,26.8,76.9,1010.7,349.9,0.8,2.1,330.7,0.00,22.4,25.7,"21:37:28",1
"23/07/22","21:50",0.0,26.7,77.3,1010.4,350.4,0.8,1.7,344.5,0.00,22.4,25.7,"21:41:28",1
"23/07/22","22:00",0.0,26.5,78.0,1010.4,342.0,1.2,1.6,341.2,0.00,22.4,25.4,"21:54:32",1
"23/07/22","22:10",0.0,26.4,78.6,1010.2,321.3,1.1,2.1,340.1,0.00,22.4,25.8,"22:02:08",1
"23/07/22","22:20",0.0,26.2,79.2,1010.4,337.0,1.1,2.6,330.9,0.00,22.4,25.4,"22:15:12",1
"23/07/22","22:30",0.0,26.3,79.7,1010.7,344.0,1.1,2.1,342.2,0.00,22.6,25.5,"22:21:28",1
"23/07/22","22:40",0.0,26.0,80.7,1010.4,343.4,1.0,1.3,354.7,0.00,22.5,25.6,"22:30:56",1
"23/07/22","22:50",0.0,25.8,81.6,1010.7,342.2,0.8,1.7,345.2,0.00,22.5,25.5,"22:47:20",1
"23/07/22","23:00",0.0,25.6,82.5,1010.4,329.5,1.0,1.3,332.1,0.00,22.4,25.5,"22:53:36",1
"23/07/22","23:10",0.0,25.5,82.9,1010.7,326.0,1.1,2.0,324.2,0.00,22.4,25.4,"23:03:20",1
"23/07/22","23:20",0.0,25.5,83.0,1010.7,324.3,1.3,2.1,317.8,0.00,22.4,25.6,"23:14:48",1
"23/07/22","23:30",0.0,25.4,83.1,1010.9,323.4,1.0,1.4,338.1,0.00,22.4,25.4,"23:22:40",1
"23/07/22","23:40",0.0,25.2,83.3,1010.9,330.6,0.8,1.9,345.6,0.00,22.2,25.2,"23:34:40",1
"23/07/22","23:50",0.0,25.1,83.8,1010.7,345.3,0.7,1.7,346.9,0.00,22.2,25.3,"23:45:20",1
"23/07/22","24:00",0.0,25.0,84.4,1010.7,326.2,0.8,1.3,348.4,0.00,22.2,25.3,"23:55:44",1
